This demonstration page uses our WeatherBlox Daily Observations layout. Learn more.

Left ArrowRight Arrow

Hourly Observations for January 15, 2016

Temp ( °F °C ) Dew Point ( °F °C ) Humidity (%) Winds ( mph kmh ) Pressure ( in mb ) Visibility ( mi km ) Precip ( " mm )
12:51 am 00:51 Clear 33 0.6 24 -4.4 70 70 N N/A 29.97 1015 10 16 N/A
1:51 am 01:51 Clear 32 undefined 24 -4.4 73 73 N N/A 29.96 1015 10 16 N/A
2:51 am 02:51 Clear 32 undefined 24 -4.4 73 73 SSE 6 9 29.94 1014 10 16 N/A
3:51 am 03:51 Clear 31 -0.6 25 -3.9 79 79 E 5 7 29.93 1014 10 16 N/A
4:51 am 04:51 Clear 31 -0.6 24 -4.4 76 76 ESE 5 7 29.93 1013 10 16 N/A
5:51 am 05:51 Clear 29 -1.7 25 -3.9 85 85 E 5 7 29.94 1014 10 16 N/A
6:51 am 06:51 Clear 31 -0.6 25 -3.9 79 79 S 7 11 29.94 1014 10 16 N/A
7:51 am 07:51 Sunny 31 -0.6 26 -3.3 82 82 N N/A 29.96 1015 10 16 N/A
8:51 am 08:51 Sunny 36 2.2 26 -3.3 67 67 ENE 3 6 29.96 1014 10 16 N/A
9:30 am 09:30 Hazy 39 3.9 28 -2.2 65 65 N N/A 30.00 1016 2 3 N/A
9:40 am 09:40 Sunny 40 4.4 28 -2.2 63 63 N N/A 30.00 1016 10 16 N/A
9:51 am 09:51 Sunny 39 3.9 27 -2.8 62 62 SSE 6 9 29.96 1015 10 16 N/A
10:41 am 10:41 Hazy 44 6.7 29 -1.7 55 55 N N/A 29.97 1015 1 2 N/A
10:45 am 10:45 Hazy 45 7 28 -2 53 53 N N/A 29.97 1015 3 5 N/A
10:51 am 10:51 Hazy 44 6.7 28 -2.2 53 53 N N/A 29.95 1014 6 10 N/A
11:51 am 11:51 Sunny 47 8.3 28 -2.2 48 48 NW 8 13 29.93 1014 10 16 N/A
12:51 pm 12:51 Partly Cloudy 48 8.9 26 -3.3 42 42 WNW 8 13 29.91 1013 10 16 N/A
1:51 pm 13:51 Mostly Sunny 49 9.4 22 -5.6 35 35 W 5 7 29.88 1012 10 16 N/A
2:51 pm 14:51 Mostly Sunny 52 11.1 25 -3.9 35 35 WNW 12 19 29.85 1011 N/A N/A
3:51 pm 15:51 Cloudy 53 11.7 24 -4.4 32 32 NW 17 28 29.85 1011 N/A N/A
4:51 pm 16:51 Cloudy 52 11.1 24 -4.4 34 34 WNW 21 33 29.86 1011 10 16 N/A
5:51 pm 17:51 Cloudy with Rain 44 6.7 36 2.2 73 73 NW 30 48 29.94 1014 5 8 0.01 0.25
6:12 pm 18:12 Cloudy with Light Rain 42 5.6 37 2.8 82 82 NW 22 35 30.00 1016 10 16 0.02 0.51
6:27 pm 18:27 Cloudy 42 5.6 37 2.8 82 82 NW 15 24 30.00 1016 10 16 0.02 0.51
6:51 pm 18:51 Mostly Cloudy 42 5.6 37 2.8 82 82 NNW 13 20 29.97 1015 10 16 0.02 0.51
7:51 pm 19:51 Partly Cloudy 42 5.6 36 2.2 79 79 NNW 10 17 30.00 1016 10 16 N/A
8:51 pm 20:51 Clear 40 4.4 35 1.7 83 83 NNW 10 17 30.01 1016 10 16 N/A
9:51 pm 21:51 Clear 41 5 34 1.1 76 76 NNW 10 17 30.02 1017 10 16 N/A
10:51 pm 22:51 Clear 42 5.6 33 0.6 71 71 NW 13 20 30.02 1017 10 16 N/A
11:51 pm 23:51 Clear 37 2.8 32 undefined 82 82 N 7 11 30.02 1017 10 16 N/A

Powered by AerisWeather